Home > Weather > Recife > Past weeks

Flag for Brazil Past Weather in Recife, Pernambuco, Brazil — Yesterday and Last 2 Weeks

Now
81 °F

Broken clouds.


Feels Like: 85 °F
Forecast: 76 / 80 °F
Wind: 17 mph from Southeast

Location: Recife Aeroporto

Current Time: Jun 26, 2016 at 9:02:44 AM

Latest Report: Jun 26, 2016 at 8:00 AM


Visibility: N/A

Pressure: 30.04 "Hg

Humidity: 74%

Dew Point: 72 °F

Location of RecifeLocation

Past Weather in Recife — Graph

°F

Recife Temperature Yesterday

Maximum temperature yesterday: 84 °F (at 12:00 PM)
Minimum temperature yesterday: 72 °F (at 4:00 AM)
Average temperature yesterday: 79 °F

High & Low Weather Summary for the Past Weeks

 TemperatureHumidityPressure
High86 °F (Jun 17, 11:00 AM)94% (Jun 12, 5:00 AM)30.12 "Hg (Jun 12, 5:00 AM)
Low72 °F (Jun 13, 5:00 AM)58% (Jun 17, 12:00 PM)29.95 "Hg (Jun 17, 3:00 PM)
Average79 °F77%30.03 "Hg
* Reported Jun 11 7:00 AM — Jun 26 7:00 AM, Recife, Weather by CustomWeather, © 2016

Note: Actual official high and low records may vary slightly from our data, if they occured in-between our weather recording intervals... More about our weather records

Advertising

Recife Weather History for the Previous 24 Hours

Scroll right to see more
 ConditionsComfort  
Time TempWeatherWind HumidityBarometerVisibility
7:00 AM
Sun, Jun 26
79 °FPartly sunny.17 mph74%30.01 "HgN/A
6:00 AM79 °FPartly sunny.17 mph74%29.98 "HgN/A
5:00 AM79 °FPassing clouds.16 mph74%29.98 "HgN/A
4:00 AM79 °FPassing clouds.16 mph74%29.98 "HgN/A
3:00 AM79 °FPassing clouds.14 mph74%29.98 "HgN/A
2:00 AM81 °FPassing clouds.13 mph70%29.98 "HgN/A
1:00 AM81 °FPassing clouds.12 mph74%30.01 "HgN/A
12:00 AM81 °FPassing clouds.10 mph74%30.01 "HgN/A
11:00 PM
Sat, Jun 25
81 °FPassing clouds.10 mph74%30.01 "HgN/A
10:00 PM81 °FPassing clouds.15 mph74%30.01 "HgN/A
9:00 PM81 °FPassing clouds.12 mph74%30.01 "HgN/A
8:00 PM81 °FPassing clouds.13 mph74%30.01 "HgN/A
7:00 PM81 °FPartly cloudy.13 mph79%29.98 "HgN/A
6:00 PM81 °FPassing clouds.10 mph74%29.98 "HgN/A
5:00 PM79 °FScattered clouds.10 mph84%29.98 "HgN/A
4:00 PM81 °FSprinkles. Partly sunny.14 mph74%29.98 "Hg4 mi
3:00 PM82 °FPassing clouds.14 mph74%29.95 "HgN/A
2:00 PM84 °FPassing clouds.14 mph70%29.98 "HgN/A
1:00 PM82 °FScattered clouds.15 mph74%29.98 "HgN/A
12:00 PM84 °FScattered clouds.14 mph70%30.01 "HgN/A
11:00 AM82 °FScattered clouds.16 mph70%30.04 "HgN/A
10:00 AM82 °FScattered clouds.14 mph70%30.04 "HgN/A
9:00 AM81 °FPassing clouds.10 mph79%30.04 "HgN/A
Weather by CustomWeather, © 2016

See weather overviewHow to use our weather pages